Location: Penton Mewsey
(51.2167°N, 1.5167°W)
Time: 09:49:04
(UTC+00:00)

Aureole 3 - Pass Details

Date: 30 March 2020
Orbit: 381 x 1235 km, 82.5° (Epoch: 06 June)

Event Time Altitude Azimuth Distance (km) Brightness Sun altitude
Exits shadow 20:11:16 - 183° (S) 2,584 6.5 -14.9°
Reaches altitude 10° 20:12:59 10° 182° (S) 1,880 5.8 -15.2°
Maximum altitude 20:17:08 75° 97° (E) 705 3.6 -15.7°
Drops below altitude 10° 20:22:30 10° 13° (NNE) 2,423 6.8 -16.5°
Sets 20:25:14 0° 12° (NNE) 3,512 7.7 -16.8°
